GLOBALSTAR M023 [+]

Last updated on July 6, 2021, 3:36 p.m. UTC

1 25621U 99004A   21186.80936446 -.00000060  00000-0  24309-3 0  9994
2 25621  52.0104 124.9941 0009461 177.0863 201.2975 12.62388641 33601
UTC
Height (km)
Latitude
Longitude
Inclination
Orbital Period
UTC large
Height (km)
Speed (km/s)
/
Latitude / Longitude
Inclination (degrees)
Orbital Period (minutes)
Azimuth
Elevation
Range (km)
Doppler Factor
iOS Compass Heading
iOS Angle